Preview of NWS' New Version of Forecast
This preview is not operational and should not be used for support decisions.

Regional Weather Roundup (RWR)

Issued by National Weather Service (NWS)

                            
000
ASUS44 KMEG 240700
RWRTN 
TENNESSEE HOURLY STATE WEATHER ROUNDUP
NATIONAL WEATHER SERVICE MEMPHIS TN
200 AM CDT WED APR 24 2019

TNZ002-004-019-021-049-052-054-088>092-240800-
WEST TENNESSEE
  
CITY           SKY/WX    TMP DP  RH WIND       PRES   REMARKS
MEMPHIS INTL   FAIR      64  57  78 S8        29.97S                  
NWS MEMPHIS      N/A     65 N/A N/A MISG        N/A                   
JACKSON        FAIR      58  54  86 S5        29.99S                  
DYERSBURG      FAIR      64  56  75 VRB5      29.97S                  
$$

TNZ008-025-027-028-033-062-065-066-240800-
NORTH MIDDLE TENNESSEE
  
CITY           SKY/WX    TMP DP  RH WIND       PRES   REMARKS
NASHVILLE      MOCLDY    62  50  64 CALM      30.00S                  
CLARKSVILLE    FAIR      58  53  84 CALM      29.97F                  
SMYRNA         FAIR      57  52  83 CALM      30.00F                  
CROSSVILLE     FAIR      57  49  74 W3        30.04F                  
$$

TNZ061-075-076-078-094-096-097-240800-
SOUTH MIDDLE TENNESSEE
  
CITY           SKY/WX    TMP DP  RH WIND       PRES   REMARKS
$$

TNZ017-018-042-046-047-240800-
NORTHEAST TENNESSEE
  
CITY           SKY/WX    TMP DP  RH WIND       PRES   REMARKS
TRI CITIES     MOCLDY    57  51  80 CALM      30.00F                  
$$

TNZ012-013-036-069-073-074-240800-
CENTRAL EAST TENNESSEE
  
CITY           SKY/WX    TMP DP  RH WIND       PRES   REMARKS
KNOXVILLE      FAIR      61  48  62 SW6       29.99F                  
OAK RIDGE      FAIR      63  50  62 CALM      30.01F                  
$$

TNZ083-085-099-240800-
SOUTHEAST TENNESSEE
  
CITY           SKY/WX    TMP DP  RH WIND       PRES   REMARKS
CHATTANOOGA    FAIR      64  54  69 CALM      30.01F                  
$$

SKY/WX REPORTED AS FAIR MEANS FEW OR NO CLOUDS BELOW
12 THOUSAND FEET.